Waarnemingen

Advertentie
Mijn weer
Tarbes/Ossun, Frankrijk (7621): temperatuur & dauwpunt: 14.02.2020 10:00:00 - 20.02.2020 10:00:00 (CET)Tarbes/Ossun, Frankrijk (7621): temperatuur 5cm: 14.02.2020 10:00:00 - 20.02.2020 10:00:00 (CET)Tarbes/Ossun, Frankrijk (7621): temperatuur -20cm & temperatuur -100cm: 14.02.2020 10:00:00 - 20.02.2020 10:00:00 (CET)Tarbes/Ossun, Frankrijk (7621): windsnelheid & windstoten: 14.02.2020 10:00:00 - 20.02.2020 10:00:00 (CET)Tarbes/Ossun, Frankrijk (7621): windrichting: 14.02.2020 10:00:00 - 20.02.2020 10:00:00 (CET)Tarbes/Ossun, Frankrijk (7621): luchtdruk: 14.02.2020 10:00:00 - 20.02.2020 10:00:00 (CET)Tarbes/Ossun, Frankrijk (7621): zicht: 14.02.2020 10:00:00 - 20.02.2020 10:00:00 (CET)Tarbes/Ossun, Frankrijk (7621): Zonneschijnduur: 14.02.2020 10:00:00 - 20.02.2020 10:00:00 (CET)Tarbes/Ossun, Frankrijk (7621): neerslag: 14.02.2020 10:00:00 - 20.02.2020 10:00:00 (CET)
Datum & Tijd tt [°C] td [°C] tt 5cm [°C] tt -20cm [°C] tt -100cm [°C] ff [km/u] ff [kn] fx [km/u] fx [kn] dd ppp [hPa] vv [km] sd [min] rr [mm]
20.02.2020 10:00:00 9,9 2,3 0,3 8,3 10,1 9 5 16 8 Z 1024,2 27 60 0,0
20.02.2020 09:00:00 3,0 -0,3 -2,7 8,4 10,1 11 6 15 8 Z 1025,0 19 47 0,0
20.02.2020 08:00:00 -0,5 -2,2 -2,9 8,6 10,1 8 4 10 6 ZZO 1025,0 60 0 0,0
20.02.2020 07:00:00 -0,8 -2,1 -3,1 8,7 10,1 9 5 12 6 Z 1024,6 60 0 0,0
20.02.2020 06:00:00 0,1 -0,9 -3,1 8,8 10,1 8 5 11 6 Z 1024,8 60 0 0,0
20.02.2020 05:00:00 -0,2 -1,2 -2,7 8,9 10,1 6 4 9 5 Z 1025,3 59 0 0,0
20.02.2020 04:00:00 0,9 0,3 -2,5 9,0 10,1 7 4 11 6 ZO 1025,7 40 0 0,0
20.02.2020 03:00:00 1,0 0,3 -2,4 9,1 10,1 5 3 11 6 ZZO 1026,5 30 0 0,0
20.02.2020 02:00:00 1,2 0,0 -2,5 9,2 10,1 8 4 12 6 Z 1027,3 30 0 0,0
20.02.2020 01:00:00 0,9 -0,4 -1,8 9,2 10,1 7 4 9 5 Z 1028,2 25 0 0,0
20.02.2020 00:00:00 1,8 0,3 -1,1 9,3 10,1 6 3 10 6 Z 1028,8 21 0 0,0
19.02.2020 23:00:00 3,1 2,1 -0,4 9,4 10,1 9 5 11 6 ZZO 1029,2 21 0 0,0
19.02.2020 22:00:00 3,2 1,6 -0,1 9,3 10,1 5 3 9 5 Z 1029,8 20 0 0,0
19.02.2020 21:00:00 3,3 1,5 0,7 9,3 10,1 7 4 9 5 ZZW 1030,3 29 0 0,0
19.02.2020 20:00:00 4,9 2,8 1,6 9,2 10,1 8 4 10 6 ZZW 1030,5 31 0 0,0
19.02.2020 19:00:00 8,1 3,4 4,1 9,1 10,1 4 2 12 7 ZZW 1030,5 60 0 0,0
19.02.2020 18:00:00 10,5 3,7 9,0 8,9 10,1 12 6 24 13 NW 1030,3 60 47 0,0
19.02.2020 17:00:00 12,9 4,3 11,6 8,7 10,1 9 5 27 15 NNW 1029,6 52 49 0,0
19.02.2020 16:00:00 12,8 4,5 17,2 8,6 10,1 13 7 22 12 N 1030,1 55 45 0,0
19.02.2020 15:00:00 13,2 4,3 22,4 8,5 10,1 10 5 22 12 NNW 1030,6 20 57 0,0
19.02.2020 14:00:00 12,5 3,4 19,2 8,4 10,1 10 5 22 12 W 1031,6 3,2 60 0,0
19.02.2020 13:00:00 11,9 2,9 14,9 8,4 10,1 8 4 22 12 W 1033,0 38 60 0,0
19.02.2020 12:00:00 11,1 2,4 11,3 8,4 10,1 10 5 22 12 NW 1033,8 60 60 0,0
19.02.2020 11:00:00 11,1 1,3 7,3 8,4 10,1 6 3 18 10 ZZW 1034,1 49 60 0,0
19.02.2020 10:00:00 8,2 1,6 4,8 8,5 10,1 14 7 20 11 Z 1034,9 60 57 0,0
19.02.2020 09:00:00 4,8 1,8 0,2 8,6 10,1 13 7 23 12 Z 1036,0 33 40 0,0
19.02.2020 08:00:00 1,1 -0,1 -0,4 8,7 10,1 12 7 17 9 ZZW 1036,3 51 0 0,0
19.02.2020 07:00:00 1,8 0,2 -0,1 8,8 10,1 11 6 24 13 ZZW 1035,9 58 0 0,0
19.02.2020 06:00:00 2,0 0,5 -1,0 8,9 10,1 14 8 16 9 Z 1035,1 57 0 0,0
19.02.2020 05:00:00 0,9 -0,3 -0,9 9,0 10,2 9 5 15 8 ZZO 1035,0 57 0 0,0
19.02.2020 04:00:00 1,5 0,2 -0,9 9,1 10,1 8 4 16 9 ZZW 1034,4 60 0 0,0
19.02.2020 03:00:00 2,3 1,4 0,1 9,2 10,2 13 7 19 10 ZZW 1034,5 50 0 0,0
19.02.2020 02:00:00 4,2 2,4 -0,1 9,2 10,2 10 5 17 9 ZZO 1035,8 53 0 0,0
19.02.2020 01:00:00 1,7 0,5 -0,2 9,3 10,1 9 5 15 8 ZW 1036,7 49 0 0,0
19.02.2020 00:00:00 3,4 1,8 0,1 9,3 10,2 8 4 16 8 WNW 1036,0 39 0 0,0
18.02.2020 23:00:00 4,8 2,8 2,3 9,3 10,1 11 6 20 11 ZZW 1035,8 42 0 0,0
18.02.2020 22:00:00 7,0 4,1 5,7 9,3 10,2 10 5 17 9 ZZW 1035,9 49 0 0,0
18.02.2020 21:00:00 7,3 4,1 5,6 9,3 10,1 11 6 24 13 ZW 1035,5 45 0 0,0
18.02.2020 20:00:00 7,7 3,5 6,2 9,2 10,2 8 4 18 10 W 1034,9 48 0 0,0
18.02.2020 19:00:00 7,9 4,1 5,6 9,1 10,1 5 3 16 9 WNW 1034,0 47 0 0,0
18.02.2020 18:00:00 8,0 2,0 5,7 9,0 10,1 9 5 27 15 NW 1033,5 60 14 0,0
18.02.2020 17:00:00 11,3 1,5 9,9 8,8 10,1 14 7 24 13 NNW 1032,9 59 52 0,0
18.02.2020 16:00:00 10,8 1,3 12,2 8,7 10,2 13 7 26 14 NW 1032,8 52 38 0,0
18.02.2020 15:00:00 11,0 1,2 15,0 8,6 10,2 10 5 22 12 W 1033,1 58 48 0,0
18.02.2020 14:00:00 11,3 0,7 10,0 8,5 10,1 12 7 32 17 W 1033,9 22 36 0,0
18.02.2020 13:00:00 10,4 2,5 10,7 8,5 10,1 7 4 19 10 NW 1034,7 20 47 0,0
18.02.2020 12:00:00 10,3 3,8 10,7 8,6 10,2 8 5 17 9 WNW 1035,1 1,6 56 0,0
18.02.2020 11:00:00 10,1 4,0 6,4 8,6 10,1 4 2 12 6 W 1035,0 47 60 0,0
18.02.2020 10:00:00 6,8 2,9 1,2 8,7 10,2 8 4 14 8 ZZO 1035,8 49 60 0,0
18.02.2020 09:00:00 3,1 1,3 0,1 8,8 10,1 10 5 16 9 ZZO 1036,2 43 42 0,0
18.02.2020 08:00:00 1,8 0,3 0,1 8,9 10,1 12 7 16 9 Z 1036,0 49 0 0,0
18.02.2020 07:00:00 1,9 0,6 0,1 9,0 10,1 13 7 15 8 Z 1035,8 50 0 0,0
18.02.2020 06:00:00 2,1 0,8 0,0 9,1 10,2 13 7 16 9 ZZO 1035,5 55 0 0,0
18.02.2020 05:00:00 1,6 0,4 0,1 9,2 10,1 10 5 15 8 Z 1035,5 54 0 0,0
18.02.2020 04:00:00 2,5 1,5 -0,1 9,3 10,1 10 5 16 8 ZZO 1035,3 51 0 0,0
18.02.2020 03:00:00 1,6 0,6 -0,1 9,4 10,1 8 4 13 7 Z 1035,8 50 0 0,0
18.02.2020 02:00:00 2,3 1,0 0,2 9,4 10,2 7 4 13 7 ZZW 1036,0 60 0 0,0
18.02.2020 01:00:00 3,4 2,2 0,7 9,5 10,2 7 4 18 10 ZZW 1035,8 56 0 0,0
18.02.2020 00:00:00 5,4 3,1 1,0 9,5 10,1 10 5 17 9 W 1035,3 54 0 0,0
17.02.2020 23:00:00 6,6 3,4 3,6 9,6 10,2 11 6 24 13 WZW 1035,1 53 0 0,0
17.02.2020 22:00:00 7,2 4,5 4,7 9,6 10,1 16 9 27 15 W 1034,6 47 0 0,0
17.02.2020 21:00:00 7,9 4,8 5,5 9,6 10,1 17 9 32 17 W 1034,1 41 0 0,0
17.02.2020 20:00:00 8,1 5,2 6,3 9,6 10,1 19 10 35 19 W 1033,6 29 0 0,0
17.02.2020 19:00:00 8,7 4,1 6,6 9,6 10,1 16 9 29 16 WZW 1032,5 53 0 0,0
17.02.2020 18:00:00 8,3 4,9 7,1 9,6 10,2 16 9 33 18 ZW 1031,7 51 0 0,0
17.02.2020 17:00:00 8,1 5,9 7,9 9,5 10,1 20 11 30 16 ZW 1031,3 50 0 0,2
17.02.2020 16:00:00 8,6 7,2 8,9 9,5 10,1 18 10 43 23 W 1030,6 9 0 0,0
17.02.2020 15:00:00 9,2 8,3 9,6 9,5 10,1 17 9 33 18 W 1029,8 6 0 0,6
17.02.2020 14:00:00 9,3 8,5 9,8 9,4 10,1 16 9 25 14 WNW 1029,6 2,9 0 0,0
17.02.2020 13:00:00 9,3 8,2 9,8 9,4 10,1 16 8 26 14 WNW 1029,2 6 0 0,0
17.02.2020 12:00:00 9,4 8,5 9,3 9,4 10,1 13 7 40 22 W 1029,1 4,7 0 0,4
17.02.2020 11:00:00 9,7 8,6 9,6 9,5 10,1 30 16 42 23 WNW 1027,7 2,8 0 0,4
17.02.2020 10:00:00 11,7 9,4 10,3 9,5 10,1 18 10 31 17 W 1025,8 19 0 0,0
17.02.2020 09:00:00 10,9 8,6 4,4 9,6 10,1 11 6 19 10 WZW 1024,9 40 28 0,0
17.02.2020 08:00:00 6,5 3,5 3,6 9,7 10,1 9 5 13 7 ZZO 1023,9 48 0 0,0
17.02.2020 07:00:00 6,5 2,9 3,0 9,8 10,1 3 2 14 8 Z 1021,8 60 0 0,0
17.02.2020 06:00:00 6,5 2,6 2,7 9,8 10,1 9 5 14 8 Z 1021,6 58 0 0,0
17.02.2020 05:00:00 7,1 2,8 2,9 9,9 10,1 10 5 19 11 Z 1021,2 55 0 0,0
17.02.2020 04:00:00 7,9 2,8 2,5 10,0 10,1 14 8 18 10 ZZO 1021,1 54 0 0,0
17.02.2020 03:00:00 5,7 2,9 2,0 10,1 10,1 10 5 13 7 Z 1021,8 49 0 0,0
17.02.2020 02:00:00 7,3 3,0 2,9 10,1 10,1 12 7 16 9 Z 1021,6 44 0 0,0
17.02.2020 01:00:00 7,3 3,9 2,8 10,2 10,1 11 6 15 8 Z 1021,5 36 0 0,0
17.02.2020 00:00:00 7,1 4,7 2,9 10,2 10,1 6 4 15 8 Z 1021,5 28 0 0,0
16.02.2020 23:00:00 7,5 6,3 3,1 10,3 10,1 6 4 11 6 ZO 1021,6 23 0 0,0
16.02.2020 22:00:00 6,2 5,0 3,5 10,3 10,1 9 5 13 7 Z 1022,0 22 0 0,0
16.02.2020 21:00:00 7,8 5,6 4,4 10,2 10,1 8 5 10 5 Z 1021,8 27 0 0,0
16.02.2020 20:00:00 9,8 8,2 4,8 10,2 10,1 3 2 9 5 ZZW 1021,1 31 0 0,0
16.02.2020 19:00:00 12,8 8,3 6,4 10,0 10,1 3 2 10 6 NNO 1020,0 19 9 0,0
16.02.2020 18:00:00 16,9 8,6 14,2 9,9 10,1 9 5 14 8 NNO 1019,1 53 37 0,0
16.02.2020 17:00:00 18,4 10,0 16,7 9,8 10,1 5 3 14 8 NW 1018,2 20 40 0,0
16.02.2020 16:00:00 19,1 9,3 22,6 9,7 10,1 5 3 13 7 N 1017,7 44 37 0,0
16.02.2020 15:00:00 16,9 8,3 15,9 9,6 10,1 3 2 9 5 N 1018,2 36 2 0,0
16.02.2020 14:00:00 15,2 7,7 15,6 9,5 10,1 7 4 12 6 NNO 1018,5 53 2 0,0
16.02.2020 13:00:00 15,6 7,4 16,3 9,5 10,1 6 3 14 8 NO 1018,6 42 0 0,0
16.02.2020 12:00:00 18,1 7,2 18,2 9,5 10,1 8 5 11 6 NNO 1018,4 60 26 0,0
16.02.2020 11:00:00 16,3 7,0 9,7 9,6 10,1 4 2 11 6 Z 1018,9 56 43 0,0
16.02.2020 10:00:00 10,9 5,8 5,8 9,6 10,1 5 3 10 6 Z 1019,9 58 18 0,0
16.02.2020 09:00:00 7,4 2,5 2,3 9,8 10,1 7 4 11 6 ZZO 1020,6 59 40 0,0
16.02.2020 08:00:00 6,4 0,3 1,4 9,8 10,1 4 2 18 10 ZZO 1020,7 60 0 0,0
16.02.2020 07:00:00 5,6 0,6 2,2 9,9 10,1 10 5 21 11 Z 1020,5 60 0 0,0
16.02.2020 06:00:00 8,1 -0,2 2,1 10,0 10,1 14 7 19 11 Z 1020,2 60 0 0,0
16.02.2020 05:00:00 6,7 0,8 1,8 10,1 10,1 12 6 16 8 Z 1020,8 60 0 0,0
16.02.2020 04:00:00 4,6 1,4 1,2 10,2 10,1 10 6 18 10 Z 1021,2 60 0 0,0
16.02.2020 03:00:00 6,6 0,9 2,6 10,3 10,1 7 4 22 12 ONO 1021,5 60 0 0,0
16.02.2020 02:00:00 8,8 2,4 2,3 10,4 10,1 13 7 17 9 ZZO 1021,4 60 0 0,0
16.02.2020 01:00:00 7,4 2,7 2,9 10,4 10,1 13 7 20 11 Z 1022,7 45 0 0,0
16.02.2020 00:00:00 7,8 4,4 2,0 10,5 10,1 9 5 16 8 ZZO 1024,1 41 0 0,0
15.02.2020 23:00:00 5,5 3,7 3,1 10,5 10,1 8 4 16 9 Z 1023,7 28 0 0,0
15.02.2020 22:00:00 7,0 5,1 3,2 10,5 10,1 8 4 13 7 Z 1023,5 30 0 0,0
15.02.2020 21:00:00 9,4 6,3 3,9 10,4 10,0 3 2 8 4 ZZO 1023,2 38 0 0,0
15.02.2020 20:00:00 9,7 6,6 6,4 10,4 10,1 6 3 9 5 ZZO 1023,3 40 0 0,0
15.02.2020 19:00:00 13,6 7,1 8,1 10,3 10,1 3 2 9 5 NW 1022,4 40 0 0,0
15.02.2020 18:00:00 16,4 6,5 11,4 10,1 10,0 5 3 14 8 ONO 1021,4 39 0 0,0
15.02.2020 17:00:00 17,2 8,1 16,4 9,9 10,1 11 6 21 12 NNO 1021,1 60 21 0,0
15.02.2020 16:00:00 18,9 7,6 22,6 9,7 10,0 13 7 20 11 N 1020,2 48 60 0,0
15.02.2020 15:00:00 19,4 6,1 29,4 9,6 10,0 13 7 19 10 NNO 1020,1 45 60 0,0
15.02.2020 14:00:00 19,1 4,8 24,3 9,5 10,0 6 3 16 9 N 1021,3 53 60 0,0
15.02.2020 13:00:00 18,2 5,1 19,1 9,5 10,0 7 4 13 7 NNO 1022,1 47 60 0,0
15.02.2020 12:00:00 17,4 6,6 13,0 9,5 10,0 2 1 10 6 OZO 1022,4 43 60 0,0
15.02.2020 11:00:00 14,4 5,2 8,5 9,6 10,0 0 0 9 5 N 1023,4 20 60 0,0
15.02.2020 10:00:00 10,3 5,5 3,8 9,7 10,0 5 3 14 8 ZO 1023,9 41 60 0,0
15.02.2020 09:00:00 5,6 3,1 0,5 9,8 10,0 9 5 16 8 Z 1024,6 56 39 0,0
15.02.2020 08:00:00 3,1 2,2 0,3 9,9 10,0 8 5 13 7 ZZO 1024,2 48 0 0,0
15.02.2020 07:00:00 3,0 2,0 0,4 10,0 10,0 6 3 12 6 Z 1024,1 48 0 0,0
15.02.2020 06:00:00 3,5 2,6 1,0 10,1 10,0 13 7 18 10 Z 1024,3 47 0 0,0
15.02.2020 05:00:00 3,4 2,7 0,5 10,2 10,0 8 4 11 6 ZO 1025,0 33 0 0,0
15.02.2020 04:00:00 2,9 2,3 0,5 10,3 10,0 5 3 9 5 ZW 1025,2 3,4 0 0,0
15.02.2020 03:00:00 4,1 3,1 1,6 10,5 10,0 7 4 12 7 ZZO 1025,3 33 0 0,0
15.02.2020 02:00:00 4,7 3,5 2,7 10,5 10,0 9 5 15 8 ZZO 1026,2 24 0 0,0
15.02.2020 01:00:00 4,9 3,6 3,0 10,6 10,0 10 5 14 7 Z 1026,6 20 0 0,0
15.02.2020 00:00:00 5,8 4,8 2,0 10,7 10,0 10 6 13 7 ZZO 1026,9 20 0 0,0
14.02.2020 23:00:00 4,7 3,2 1,7 10,7 10,0 7 4 12 7 Z 1027,1 18 0 0,0
14.02.2020 22:00:00 5,2 4,2 1,8 10,8 10,0 6 4 9 5 Z 1026,8 17 0 0,0
14.02.2020 21:00:00 5,2 3,5 2,6 10,8 10,0 6 3 10 5 Z 1026,6 22 0 0,0
14.02.2020 20:00:00 6,6 4,9 3,1 10,7 10,0 7 4 9 5 ZW 1026,8 34 0 0,0
14.02.2020 19:00:00 11,1 5,8 5,0 10,6 10,0 5 3 14 7 NNO 1026,0 36 6 0,0
14.02.2020 18:00:00 13,6 6,2 10,8 10,5 10,0 8 4 11 6 NNW 1025,3 41 60 0,0
14.02.2020 17:00:00 15,6 6,6 13,3 10,4 10,0 8 4 16 9 WNW 1025,0 20 60 0,0
14.02.2020 16:00:00 15,5 6,2 25,0 10,2 10,0 6 3 18 10 NNW 1025,2 47 60 0,0
14.02.2020 15:00:00 15,1 6,4 16,0 10,1 10,0 4 2 18 10 NNO 1025,6 46 28 0,0
14.02.2020 14:00:00 14,9 6,5 16,2 10,0 10,0 10 5 25 13 NW 1026,5 51 48 0,0
14.02.2020 13:00:00 14,4 7,7 15,6 10,0 10,0 11 6 35 19 NNW 1026,9 33 48 0,0
14.02.2020 12:00:00 13,8 6,6 12,9 10,0 10,0 15 8 26 14 W 1027,0 40 60 0,0
14.02.2020 11:00:00 13,2 6,5 10,3 10,0 9,9 11 6 18 10 W 1027,1 35 60 0,0
14.02.2020 10:00:00 11,3 8,7 7,7 10,1 9,9 8 5 14 8 ZO 1027,3 36 60 0,0

tt = temperatuur
td = dauwpunt
tt 5cm = temperatuur 5cm
tt -20cm = temperatuur -20cm
tt -100cm = temperatuur -100cm
ff = windsnelheid
fx = windstoten
dd = windrichting
ppp = luchtdruk
vv = zicht
sd = Zonneschijnduur
rr = neerslag

Weerstations in de omgeving